Details From SBMQ - MACAPA
To SOCA - Cayenne Rochambeau
Flight Number -
Tags generated
Created
Modified
Stats Distance 297 nm / 549 km
Max Altitude 0 ft / 0 m
Waypoints 2
Social Downloads 3
Likes 0
Share

Download

Looking for another format? Having issues loading an existing format? Contact us
Advertisement - Login to hide

Notes

Basic altitude profile: - Ascent Rate: 500ft/min - Ascent Speed: 90kts - Cruise Altitude: 35000ft - Cruise Speed: 95kts - Descent Rate: 500ft/min - Descent Speed: 100kts Options: - Use NATs: yes - Use PACOTS: yes - Use low airways: no - Use high airways: no

Route

SBMQ SOCA

ID Type Via Altitude (ft/m) Position (lat/lon) Dist (leg/tot) Name
O SBMQ APT - 0 / 0 0.05064 / -51.07216 - / 0 nm MACAPA
O SOCA APT - 0 / 0 4.81981 / -52.36045 296 / 296 nm Cayenne Rochambeau

Altitude Profile

Advertisement - Login to hide

Weather


0- 5 10 15 20 25 30 35+ Temperature / °C

Clouds and Precipitation
Forecast for 2021-12-04 18:00 UTC. Updated 5 hours ago

Ground ~20,000 ft ~40,000 ft Winds

SBMQ

Details ICAO SBMQ (MCP)
Name Macapa, Alberto A Intl
Region Brazil
Timezone America/Belem (UTC-3.0)
Stats Elevation 56 ft / 17 m (AMSL)
Location 0.050621° -51.072100°
Runways 1
Magnetic Variation 19.496° W

METAR

SBMQ 042000Z 06003KT 9999 FEW017 29/23 Q1008

Decode

TAF

TAF SBMQ 040938Z 0412/0512 31005KT 8000 BKN015 TX31/0416Z TN24/0509Z BECMG 0412/0414 07007KT BECMG 0416/0418 04007KT 7000 BKN020 FEW030TCU PROB40 0418/0420 TS BKN020 FEW030CB BECMG 0420/0423 01005KT 8000 SCT015 BECMG 0501/0504 33005KT SCT010 RMK PHC

Decode

Departure Runways

ID Width Length Bearing (true/mag) Surface Threshold Overrun Markings Lighting
08 148 ft / 45 m 6,896 ft / 2,102 m 57.22° / 76.72° ASPHALT 0 ft / 0 m 0 ft / 0 m APP EDGE THRESHOLD REIL-OMNI
26 148 ft / 45 m 6,896 ft / 2,102 m 237.22° / 256.72° ASPHALT 0 ft / 0 m 0 ft / 0 m APP EDGE THRESHOLD REIL-OMNI

SOCA

Details ICAO SOCA (CAY)
Name Cayenne-Felix Eboue Intl
Region French Guiana
Timezone America/Cayenne (UTC-3.0)
Stats Elevation 26 ft / 8 m (AMSL)
Location 4.820030° -52.361100°
Runways 1
Magnetic Variation 18.466° W

METAR

SOCA 042030Z AUTO 08006KT 9999 -RA BKN008 BKN084 OVC140 25/24 Q1010 TEMPO 3000 SHRA FEW010 BKN015TCU

Decode

TAF

TAF SOCA 041600Z 0418/0518 08008KT 9999 SCT012 BKN020 TEMPO 0418/0518 3000 SHRA FEW010 BKN015TCU PROB30 TEMPO 0418/0422 2000 TSRA FEW010 SCT015CB TEMPO 0420/0509 VRB02KT FM051200 09008KT 9999 SCT018 BKN026

Decode

Destination Runways

ID Width Length Bearing (true/mag) Surface Threshold Overrun Markings Lighting
08 148 ft / 45 m 10,489 ft / 3,197 m 65.20° / 83.67° ASPHALT 0 ft / 0 m 0 ft / 0 m PREC-APP CENTERLINE EDGE THRESHOLD MALSR TDZ REIL-OMNI
26 148 ft / 45 m 10,489 ft / 3,197 m 245.20° / 263.67° ASPHALT 0 ft / 0 m 0 ft / 0 m APP CENTERLINE EDGE THRESHOLD REIL-OMNI

Popular Alternatives